Flag for United Kingdom Weather past 2 weeks in Leicester, England, United Kingdom

Now
36 °F

Light rain. Partly sunny.


Feels Like: 25 °F
Forecast: 35 / 39 °F
Wind: 18 mph from West

Location: East Midlands

Current Time: Jan 29, 2015 at 1:31:10 PM

Latest Report: Jan 29, 2015 at 12:50 PM


Visibility: N/A

Pressure: 28.88 "Hg

Humidity: 93%

Dew point: 34 °F

Location of LeicesterLocation

Historic Weather in Leicester — Graph

°F

Leicester temperature yesterday

Maximum temperature yesterday: 48 °F (at 7:50 AM)
Minimum temperature yesterday: 34 °F (at 11:50 PM)
Average temperature yesterday: 41 °F

Past Weeks' High & Low Weather Summary

 TemperatureHumidityPressure
High50 °F (Jan 15, 1:20 AM)100% (Jan 18, 2:50 AM)30.42 "Hg (Jan 18, 2:50 AM)
Low25 °F (Jan 19, 6:20 AM)61% (Jan 28, 3:50 PM)28.91 "Hg (Jan 15, 1:20 AM)
Average38 °F85%29.86 "Hg
* Reported Jan 14 12:20 PM — Jan 29 12:20 PM, Leicester, Weather by CustomWeather, © 2014

Note: Actual official high and low records may vary slightly from our data, if they occured in-between our weather recording intervals... More about our weather records

Advertising

Leicester weather history for previous 24 hours

 ConditionsComfort  
Time TempWeatherWind HumidityBarometerVisibility
12:20 PM
Jan 29
36 °FLight rain. Partly sunny.21 mph93%28.91 "Hg3 mi
11:50 AM37 °FSnow flurries. Partly sunny.20 mph87%28.91 "Hg3 mi
11:20 AM36 °FSnow flurries. Partly sunny.21 mph93%28.94 "Hg3 mi
10:50 AM37 °FScattered clouds.23 mph81%28.94 "HgN/A
10:20 AM37 °FScattered clouds.22 mph81%28.97 "HgN/A
9:50 AM36 °FPassing clouds.22 mph87%29.00 "HgN/A
9:20 AM36 °FPassing clouds.21 mph87%29.03 "HgN/A
8:50 AM36 °FSnow flurries. Scattered clouds.20 mph87%29.03 "HgN/A
8:20 AM34 °FSnow flurries. Scattered clouds.21 mph93%29.06 "HgN/A
7:50 AM34 °FSnow flurries. Passing clouds.24 mph93%29.09 "HgN/A
7:20 AM34 °FSnow flurries. Passing clouds.22 mph93%29.09 "HgN/A
6:50 AM34 °FPassing clouds.18 mph93%29.12 "HgN/A
6:20 AM34 °FPartly cloudy.17 mph93%29.15 "HgN/A
5:50 AM34 °FPassing clouds.17 mph93%29.15 "HgN/A
5:20 AM34 °FSnow flurries. Partly cloudy.18 mph93%29.18 "HgN/A
4:50 AM36 °FSnow flurries. Partly cloudy.23 mph87%29.18 "HgN/A
4:20 AM34 °FPassing clouds.20 mph87%29.21 "HgN/A
3:50 AM34 °FPassing clouds.18 mph87%29.21 "HgN/A
3:20 AM36 °FPartly cloudy.23 mph81%29.24 "HgN/A
2:50 AM36 °FPassing clouds.22 mph81%29.27 "HgN/A
2:20 AM36 °FPartly cloudy.24 mph81%29.27 "HgN/A
1:50 AM36 °FPassing clouds.22 mph81%29.30 "HgN/A
1:20 AM36 °FPassing clouds.18 mph87%29.30 "HgN/A
12:50 AM36 °FPassing clouds.23 mph87%29.33 "HgN/A
12:20 AM36 °FPassing clouds.16 mph87%29.33 "HgN/A
11:50 PM
Jan 28
34 °FPartly cloudy.22 mph93%29.33 "HgN/A
11:20 PM36 °FSprinkles. Partly cloudy.26 mph87%29.36 "HgN/A
10:50 PM36 °FSprinkles. Partly cloudy.24 mph87%29.36 "HgN/A
10:20 PM37 °FSnow flurries. Partly cloudy.21 mph81%29.39 "HgN/A
9:50 PM36 °FSnow flurries. Partly cloudy.22 mph87%29.42 "HgN/A
9:20 PM36 °FSnow flurries. Passing clouds.24 mph81%29.42 "HgN/A
8:50 PM36 °FPassing clouds.21 mph87%29.45 "HgN/A
8:20 PM36 °FPassing clouds.22 mph81%29.45 "HgN/A
7:50 PM37 °FClear.18 mph70%29.47 "Hg10 mi
7:20 PM37 °FPassing clouds.23 mph65%29.47 "HgN/A
6:50 PM37 °FPassing clouds.21 mph65%29.47 "HgN/A
6:20 PM39 °FPassing clouds.23 mph61%29.47 "HgN/A
5:50 PM37 °FPassing clouds.20 mph70%29.50 "HgN/A
5:20 PM37 °FPassing clouds.24 mph65%29.50 "HgN/A
4:50 PM39 °FPassing clouds.26 mph61%29.50 "HgN/A
4:20 PM39 °FPartly sunny.24 mph61%29.50 "HgN/A
3:50 PM39 °FScattered showers. Partly sunny.30 mph61%29.50 "HgN/A
3:20 PM39 °FScattered showers. Scattered clouds.22 mph70%29.47 "HgN/A
2:50 PM39 °FSnow flurries. Scattered clouds.24 mph70%29.50 "Hg6 mi
2:20 PM41 °FScattered showers. Scattered clouds.31 mph66%29.47 "HgN/A
1:50 PM41 °FScattered showers. Scattered clouds.18 mph70%29.47 "HgN/A
1:20 PM41 °FScattered showers. Scattered clouds.26 mph66%29.47 "HgN/A
Weather by CustomWeather, © 2014

See weather overviewHow to use our weather pages